Weather History for Sheridan, WY

Change the Weather History Date:

Tuesday, December 24, 2013

  Actual Average Record
Temperature  
Mean Temperature 36 °F 22 °F  
Max Temperature 51 °F 35 °F 61 °F (1922)
Min Temperature 20 °F 10 °F -37 °F (1983)
Degree Days  
Heating Degree Days 29 43  
Month to date heating degree days 1179 1009  
Since 1 July heating degree days 2984 2887  
Cooling Degree Days 0 0  
Month to date cooling degree days 0 0  
Year to date cooling degree days 592 419  
Moisture  
Dew Point 25 °F    
Average Humidity 66    
Maximum Humidity 92    
Minimum Humidity 39    
Precipitation  
Precipitation 0.05 in 0.01 in 0.35 in (1955)
Month to date precipitation 0.90 0.44  
Year to date precipitation 17.79 14.04  
Sea Level Pressure  
Sea Level Pressure 30.15 in    
Wind  
Wind Speed 14 mph (NW)    
Max Wind Speed 46 mph    
Max Gust Speed 61 mph    
Visibility 7 miles    
Events Fog , Rain , Snow    
T = Trace of Precipitation, MM = Missing Value Source: NWS Daily Summary

Daily Weather History Graph

Daily Weather History Graph

Search for Another Location

Airport:

Trip Planner

Search our weather history database for the weather conditions in past years. The results will help you decide how hot, cold, wet, or windy it might be!

Date:

Astronomy

Dec. 24, 2013 Rise Set
Actual Time 7:43 AM MST 4:31 PM MST
Civil Twilight 7:09 AM MST 5:05 PM MST
Nautical Twilight 6:32 AM MST 5:42 PM MST
Astronomical Twilight 5:57 AM MST 6:18 PM MST
Moon No Moon Rise 11:22 AM MST (12/24)
Length of Visible Light 9h 55m
Length of Day
8h 48m
Waning Gibbous, 58% of the Moon is Illuminated
Dec 24
Waning Gibbous
Dec 25
Last Quarter
Jan 1
New
Jan 7
First Quarter
Jan 15
Full

Hourly Weather History & Observations

Time (MST) Temp. Windchill Dew Point Humidity Pressure Visibility Wind Dir Wind Speed Gust Speed Precip Events Conditions
12:53 AM 48.0 °F - 24.1 °F 39% 29.84 in 10.0 mi Variable 5.8 mph 18.4 mph N/A   Partly Cloudy
1:28 AM 37.9 °F 24.7 °F 28.0 °F 68% 29.86 in 10.0 mi NNW 35.7 mph 50.6 mph N/A   Partly Cloudy
1:53 AM 36.0 °F 26.3 °F 30.9 °F 82% 30.03 in 10.0 mi NNW 16.1 mph - N/A   Mostly Cloudy
2:06 AM 36.0 °F 26.7 °F 30.9 °F 82% 29.91 in 10.0 mi NNW 15.0 mph - N/A   Overcast
2:53 AM 36.0 °F 22.4 °F 30.9 °F 82% 30.04 in 8.0 mi NW 33.4 mph 40.3 mph 0.00 in Rain Light Rain
3:05 AM 34.0 °F 17.9 °F 30.9 °F 89% 29.93 in 2.5 mi WNW 44.9 mph 61.0 mph 0.02 in Snow Light Snow
3:16 AM 36.0 °F 23.5 °F 30.9 °F 82% 29.92 in 5.0 mi WNW 27.6 mph 52.9 mph 0.03 in Snow Light Snow
3:32 AM 37.0 °F 24.1 °F 28.9 °F 73% 29.92 in 10.0 mi WNW 32.2 mph 40.3 mph 0.04 in   Overcast
3:53 AM 37.9 °F 25.9 °F 26.1 °F 62% 30.01 in 10.0 mi WNW 28.8 mph 40.3 mph 0.04 in   Overcast
4:53 AM 37.9 °F 27.6 °F 23.0 °F 55% 30.07 in 10.0 mi NW 20.7 mph - N/A   Overcast
5:53 AM 36.0 °F 27.5 °F 24.1 °F 62% 30.13 in 10.0 mi NNW 12.7 mph - N/A   Overcast
6:53 AM 34.0 °F 21.5 °F 25.0 °F 70% 30.17 in 10.0 mi NNW 24.2 mph 33.4 mph N/A   Overcast
7:21 AM 32.0 °F 18.1 °F 28.0 °F 85% 30.06 in 2.5 mi NW 27.6 mph 34.5 mph 0.00 in Snow Light Snow
7:38 AM 32.0 °F 18.4 °F 28.0 °F 85% 30.07 in 5.0 mi NW 26.5 mph 34.5 mph 0.00 in Snow Light Snow
7:53 AM 32.0 °F 18.9 °F 28.0 °F 85% 30.19 in 3.0 mi WNW 24.2 mph - 0.00 in Snow Light Snow
8:03 AM 32.0 °F 18.4 °F 28.0 °F 85% 30.07 in 1.5 mi WNW 26.5 mph 33.4 mph 0.00 in Snow Light Snow
8:10 AM 32.0 °F 17.4 °F 28.9 °F 88% 30.07 in 0.5 mi NW 31.1 mph - 0.00 in Fog , Snow Snow
8:16 AM 32.0 °F 18.1 °F 28.9 °F 88% 30.08 in 0.2 mi NW 27.6 mph 35.7 mph 0.00 in Fog , Snow Heavy Snow
8:23 AM 32.0 °F 18.4 °F 28.9 °F 88% 30.08 in 0.8 mi NW 26.5 mph 34.5 mph 0.00 in Snow Light Snow
8:31 AM 32.0 °F 17.2 °F 28.9 °F 88% 30.09 in 1.0 mi NW 32.2 mph 40.3 mph 0.00 in Snow Light Snow
8:34 AM 32.0 °F 16.5 °F 28.9 °F 88% 30.09 in 0.5 mi NW 35.7 mph 40.3 mph 0.00 in Fog , Snow Light Snow
8:44 AM 30.9 °F 15.7 °F 28.9 °F 92% 30.10 in 0.2 mi NW 32.2 mph 41.4 mph 0.00 in Fog , Snow Snow
8:53 AM 30.9 °F 15.7 °F 28.9 °F 92% 30.22 in 0.2 mi NW 32.2 mph - 0.00 in Fog , Snow Snow
8:59 AM 30.9 °F 16.2 °F 28.9 °F 92% 30.11 in 0.8 mi WNW 29.9 mph - 0.00 in Snow Light Snow
9:12 AM 30.9 °F 16.4 °F 28.0 °F 89% 30.12 in 0.8 mi WNW 28.8 mph 38.0 mph 0.00 in Snow Light Snow
9:20 AM 30.9 °F 16.7 °F 28.0 °F 89% 30.13 in 1.2 mi WNW 27.6 mph - 0.00 in Snow Light Snow
9:36 AM 32.0 °F 18.4 °F 28.0 °F 85% 30.13 in 3.0 mi WNW 26.5 mph - 0.01 in Snow Light Snow
9:53 AM 34.0 °F 20.5 °F 27.0 °F 75% 30.22 in 5.0 mi WNW 28.8 mph 35.7 mph 0.01 in   Haze
10:53 AM 34.0 °F 21.0 °F 26.1 °F 73% 30.27 in 10.0 mi NW 26.5 mph - N/A   Clear
11:53 AM 35.1 °F 26.9 °F 26.1 °F 70% 30.22 in 10.0 mi NW 11.5 mph - N/A   Overcast
12:53 PM 36.0 °F 28.5 °F 25.0 °F 64% 30.20 in 10.0 mi NNW 10.4 mph - N/A   Clear
1:53 PM 37.9 °F - 24.1 °F 57% 30.21 in 10.0 mi Calm Calm - N/A   Clear
2:53 PM 34.0 °F 29.8 °F 21.9 °F 61% 30.22 in 10.0 mi SSW 4.6 mph - N/A   Clear
3:53 PM 28.0 °F 22.8 °F 19.0 °F 69% 30.24 in 10.0 mi WSW 4.6 mph - N/A   Clear
4:53 PM 25.0 °F - 16.0 °F 69% 30.27 in 10.0 mi Calm Calm - N/A   Clear
5:53 PM 27.0 °F 18.0 °F 16.0 °F 63% 30.30 in 10.0 mi West 9.2 mph - N/A   Clear
6:53 PM 21.0 °F 11.4 °F 14.0 °F 74% 30.34 in 10.0 mi South 8.1 mph - N/A   Scattered Clouds
7:53 PM 24.1 °F - 15.1 °F 69% 30.36 in 10.0 mi Calm Calm - N/A   Overcast
8:53 PM 23.0 °F 15.8 °F 16.0 °F 74% 30.36 in 10.0 mi SSW 5.8 mph - N/A   Overcast
9:53 PM 30.0 °F 18.7 °F 15.1 °F 54% 30.34 in 10.0 mi NW 16.1 mph - N/A   Mostly Cloudy
10:53 PM 26.1 °F 19.4 °F 15.1 °F 63% 30.37 in 10.0 mi NNW 5.8 mph - N/A   Clear
11:53 PM 28.0 °F - 15.1 °F 58% 30.37 in 10.0 mi Calm Calm - N/A   Overcast